This is the latest recevied weather packets stored in our database for station/object PU5BHV. If no packets are shown the sender has not sent any weather packets the latest 10 day(s).
| Time | Temp. | Humidity | Pressure | Rain* | Wind** | Luminosity | Snow |
|---|---|---|---|---|---|---|---|
| 1778149189 | 22.22° C | 99% | 1014.4 hPa | 0 mm | - | 43 W/m² | - |
| 1778148884 | 22.22° C | 99% | 1014.4 hPa | 0 mm | - | 27 W/m² | - |
| 1778148580 | 22.22° C | 99% | 1014.4 hPa | 0 mm | - | 21 W/m² | - |
| 1778148278 | 22.22° C | 99% | 1014.2 hPa | 0 mm | - | 15 W/m² | - |
| 1778147976 | 22.22° C | 99% | 1014.4 hPa | 0 mm | - | 8 W/m² | - |
| 1778147673 | 22.22° C | 99% | 1014.1 hPa | 0 mm | - | 5 W/m² | - |
| 1778147370 | 22.22° C | 99% | 1014.1 hPa | 0 mm | - | 2 W/m² | - |
| 1778147066 | 22.22° C | 99% | 1014 hPa | 0 mm | - | 0 W/m² | - |
| 1778146764 | 22.22° C | 99% | 1013.9 hPa | 0 mm | - | 0 W/m² | - |
| 1778146461 | 22.22° C | 99% | 1014.1 hPa | 0 mm | - | 0 W/m² | - |
| 1778146160 | 22.22° C | 99% | 1014.1 hPa | 0 mm | - | 0 W/m² | - |
| 1778145855 | 22.22° C | 99% | 1014 hPa | 0 mm | - | 0 W/m² | - |
| 1778145552 | 22.22° C | 99% | 1014 hPa | 0 mm | - | 0 W/m² | - |
| 1778145249 | 22.22° C | 99% | 1014.1 hPa | 0 mm | - | 0 W/m² | - |
| 1778144944 | 22.22° C | 99% | 1013.9 hPa | 0 mm | - | 0 W/m² | - |
| 1778144641 | 22.22° C | 99% | 1014.3 hPa | 0 mm | - | 0 W/m² | - |
| 1778144338 | 22.22° C | 99% | 1014.2 hPa | 0 mm | - | 0 W/m² | - |
| 1778144034 | 22.22° C | 99% | 1014.1 hPa | 0 mm | - | 0 W/m² | - |
| 1778143732 | 22.22° C | 99% | 1013.9 hPa | 0 mm | - | 0 W/m² | - |
| 1778143428 | 22.22° C | 99% | 1013.9 hPa | 0 mm | - | 0 W/m² | - |
| 1778143126 | 22.22° C | 99% | 1014.1 hPa | 0 mm | - | 0 W/m² | - |
| 1778142822 | 22.22° C | 99% | 1014 hPa | 0 mm | - | 0 W/m² | - |
| 1778142518 | 22.22° C | 99% | 1013.8 hPa | 0 mm | - | 0 W/m² | - |
| 1778142214 | 22.22° C | 99% | 1014 hPa | 0 mm | - | 0 W/m² | - |
| 1778141911 | 22.22° C | 99% | 1013.9 hPa | 0 mm | - | 0 W/m² | - |
* Rain latest hour (hover to see other rain measurements)
** Current wind speed in m/s (hover to see current wind gust speed)